| time (UTC) | temp F | wind direction | speed knots | gust knots | rain 1hr in | rain 24hr in | rain mn in | humidity % | barometer mb |
| 20260831200303 | 86 | 274 | 1.7 | 4.3 | 0.00 | 0.00 | 0.00 | 88 | 1008.4 |
| 20260831195804 | 86 | 117 | 0.0 | 0.9 | 0.00 | 0.00 | 0.00 | 88 | 1008.3 |
| 20260831195306 | 85 | 63 | 1.7 | 2.6 | 0.00 | 0.00 | 0.00 | 88 | 1008.4 |
| 20260831194303 | 84 | 39 | 0.9 | 1.7 | 0.00 | 0.00 | 0.00 | 88 | 1008.3 |
| 20260831193803 | 84 | 313 | 0.9 | 2.6 | 0.00 | 0.00 | 0.00 | 88 | 1008.3 |
| 20260831192803 | 85 | 330 | 0.9 | 1.7 | 0.00 | 0.00 | 0.00 | 88 | 1008.4 |
| 20260831192305 | 85 | 229 | 0.9 | 2.6 | 0.00 | 0.00 | 0.00 | 88 | 1008.4 |
| 20260831191804 | 84 | 310 | 0.0 | 0.9 | 0.00 | 0.00 | 0.00 | 88 | 1008.4 |
| 20260831191303 | 83 | 167 | 0.0 | 2.6 | 0.00 | 0.00 | 0.00 | 88 | 1008.4 |
| 20260831190804 | 83 | 167 | 0.9 | 2.6 | 0.00 | 0.00 | 0.00 | 88 | 1008.5 |
| 20260831185804 | 83 | 304 | 0.9 | 2.6 | 0.00 | 0.00 | 0.00 | 78 | 1008.5 |
| 20260831185306 | 83 | 229 | 0.0 | 2.6 | 0.00 | 0.00 | 0.00 | 78 | 1008.5 |
| 20260831184804 | 83 | 305 | 1.7 | 4.3 | 0.00 | 0.00 | 0.00 | 78 | 1008.5 |
| 20260831184303 | 83 | 306 | 1.7 | 2.6 | 0.00 | 0.00 | 0.00 | 78 | 1008.5 |
| 20260831183803 | 83 | 276 | 0.9 | 2.6 | 0.00 | 0.00 | 0.00 | 78 | 1008.4 |
| 20260831183304 | 83 | 297 | 1.7 | 2.6 | 0.00 | 0.00 | 0.00 | 78 | 1008.5 |
| 20260831182305 | 83 | 14 | 0.9 | 2.6 | 0.00 | 0.00 | 0.00 | 78 | 1008.6 |
| 20260831181304 | 83 | 298 | 1.7 | 4.3 | 0.00 | 0.00 | 0.00 | 78 | 1008.6 |
| 20260831180804 | 83 | 266 | 0.9 | 2.6 | 0.00 | 0.00 | 0.00 | 78 | 1008.6 |
| 20260831180304 | 83 | 274 | 1.7 | 2.6 | 0.00 | 0.00 | 0.00 | 78 | 1008.6 |
| 20260831175803 | 83 | 312 | 0.0 | 1.7 | 0.00 | 0.00 | 0.00 | 80 | 1008.5 |
| 20260831175306 | 83 | 312 | 0.9 | 4.3 | 0.00 | 0.00 | 0.00 | 80 | 1008.6 |
| 20260831174803 | 83 | 301 | 1.7 | 2.6 | 0.00 | 0.00 | 0.00 | 80 | 1008.6 |
| 20260831174303 | 82 | 269 | 1.7 | 2.6 | 0.00 | 0.00 | 0.00 | 80 | 1008.6 |
| 20260831173803 | 82 | 269 | 0.0 | 2.6 | 0.00 | 0.00 | 0.00 | 80 | 1008.5 |
| 20260831173303 | 82 | 269 | 0.9 | 2.6 | 0.00 | 0.00 | 0.00 | 80 | 1008.5 |
| 20260831172803 | 82 | 324 | 0.0 | 0.9 | 0.00 | 0.00 | 0.00 | 80 | 1008.5 |
| 20260831172306 | 82 | 324 | 1.7 | 2.6 | 0.00 | 0.00 | 0.00 | 80 | 1008.6 |
| 20260831171304 | 82 | 344 | 0.9 | 2.6 | 0.00 | 0.00 | 0.00 | 80 | 1008.7 |
| 20260831170304 | 82 | 309 | 1.7 | 4.3 | 0.00 | 0.00 | 0.00 | 80 | 1008.7 |
| 20260831165804 | 82 | 268 | 0.0 | 2.6 | 0.00 | 0.00 | 0.00 | 82 | 1008.8 |
| 20260831165305 | 82 | 278 | 0.9 | 2.6 | 0.00 | 0.00 | 0.00 | 82 | 1008.9 |
| 20260831164803 | 82 | 267 | 0.9 | 2.6 | 0.00 | 0.00 | 0.00 | 82 | 1008.9 |
| 20260831164304 | 82 | 321 | 2.6 | 4.3 | 0.00 | 0.00 | 0.00 | 82 | 1008.9 |
| 20260831163803 | 82 | 253 | 0.9 | 6.1 | 0.00 | 0.00 | 0.00 | 82 | 1008.9 |
| 20260831163304 | 82 | 212 | 0.9 | 4.3 | 0.00 | 0.00 | 0.00 | 82 | 1008.8 |
| 20260831162804 | 83 | 265 | 1.7 | 6.1 | 0.00 | 0.00 | 0.00 | 82 | 1008.8 |
| 20260831162306 | 83 | 272 | 1.7 | 5.2 | 0.00 | 0.00 | 0.00 | 82 | 1008.7 |
| 20260831161303 | 82 | 288 | 1.7 | 6.1 | 0.00 | 0.00 | 0.00 | 82 | 1008.5 |
| 20260831160803 | 81 | 283 | 1.7 | 5.2 | 0.00 | 0.00 | 0.00 | 82 | 1008.5 |
| 20260831160304 | 81 | 226 | 0.9 | 6.1 | 0.00 | 0.00 | 0.00 | 84 | 1008.5 |
| 20260831155803 | 81 | 215 | 0.9 | 2.6 | 0.00 | 0.00 | 0.00 | 93 | 1008.7 |
| 20260831155306 | 81 | 247 | 0.9 | 1.7 | 0.00 | 0.00 | 0.00 | 93 | 1008.6 |
| 20260831154803 | 81 | 328 | 0.9 | 4.3 | 0.00 | 0.00 | 0.00 | 93 | 1008.4 |
| 20260831153804 | 82 | 307 | 1.7 | 4.3 | 0.00 | 0.00 | 0.00 | 93 | 1008.2 |
| 20260831153303 | 82 | 319 | 1.7 | 5.2 | 0.00 | 0.00 | 0.00 | 93 | 1008.1 |
| 20260831152803 | 81 | 255 | 1.7 | 7.0 | 0.00 | 0.00 | 0.00 | 93 | 1008.1 |
| 20260831152306 | 81 | 13 | 0.9 | 7.0 | 0.00 | 0.00 | 0.00 | 93 | 1008.1 |
| 20260831151803 | 81 | 335 | 1.7 | 5.2 | 0.00 | 0.00 | 0.00 | 93 | 1008.0 |
| 20260831151304 | 81 | 282 | 1.7 | 6.1 | 0.00 | 0.00 | 0.00 | 93 | 1008.0 |
| 20260831150804 | 81 | 276 | 0.9 | 2.6 | 0.00 | 0.00 | 0.00 | 93 | 1007.9 |
| 20260831150303 | 80 | 298 | 1.7 | 4.3 | 0.00 | 0.00 | 0.00 | 93 | 1008.0 |
| 20260831145803 | 80 | 311 | 2.6 | 7.0 | 0.00 | 0.00 | 0.00 | 93 | 1007.8 |
| 20260831145306 | 80 | 287 | 0.0 | 2.6 | 0.00 | 0.00 | 0.00 | 93 | 1007.7 |
| 20260831144804 | 81 | 290 | 0.9 | 4.3 | 0.00 | 0.00 | 0.00 | 93 | 1007.7 |
| 20260831144303 | 81 | 279 | 2.6 | 7.0 | 0.00 | 0.00 | 0.00 | 93 | 1007.6 |
| 20260831143804 | 81 | 315 | 1.7 | 7.8 | 0.00 | 0.00 | 0.00 | 93 | 1007.5 |
| 20260831142803 | 80 | 273 | 2.6 | 7.0 | 0.00 | 0.00 | 0.00 | 93 | 1007.6 |
| 20260831141804 | 79 | 221 | 2.6 | 7.0 | 0.00 | 0.00 | 0.00 | 93 | 1007.4 |
| 20260831141303 | 79 | 219 | 0.9 | 5.2 | 0.00 | 0.00 | 0.00 | 93 | 1007.4 |
| 20260831140803 | 78 | 191 | 1.7 | 5.2 | 0.00 | 0.00 | 0.00 | 93 | 1007.3 |
| 20260831140304 | 78 | 71 | 0.0 | 0.0 | 0.00 | 0.00 | 0.00 | 93 | 1007.2 |
| 20260831135803 | 78 | 70 | 0.9 | 1.7 | 0.00 | 0.00 | 0.00 | 100 | 1007.2 |
| 20260831135306 | 77 | 315 | 0.0 | 4.3 | 0.00 | 0.00 | 0.00 | 100 | 1007.2 |
| 20260831134804 | 77 | 239 | 0.9 | 2.6 | 0.00 | 0.00 | 0.00 | 100 | 1007.2 |
| 20260831134304 | 77 | 289 | 2.6 | 8.7 | 0.00 | 0.00 | 0.00 | 100 | 1007.1 |
| 20260831133804 | 76 | 311 | 0.0 | 1.7 | 0.00 | 0.00 | 0.00 | 100 | 1007.2 |
| 20260831133304 | 76 | 307 | 0.0 | 0.0 | 0.00 | 0.00 | 0.00 | 100 | 1007.1 |
| 20260831132803 | 75 | 278 | 0.9 | 2.6 | 0.00 | 0.00 | 0.00 | 100 | 1007.1 |
| 20260831132306 | 74 | 351 | 0.0 | 0.0 | 0.00 | 0.00 | 0.00 | 100 | 1007.0 |
| 20260831131804 | 73 | 351 | 0.0 | 0.0 | 0.00 | 0.00 | 0.00 | 100 | 1006.9 |
| 20260831131303 | 73 | 351 | 0.0 | 0.0 | 0.00 | 0.00 | 0.00 | 100 | 1007.0 |
| 20260831130803 | 73 | 351 | 0.0 | 0.0 | 0.00 | 0.00 | 0.00 | 100 | 1006.9 |
| 20260831130303 | 72 | 351 | 0.0 | 0.0 | 0.00 | 0.00 | 0.00 | 100 | 1007.0 |
| 20260831125803 | 72 | 175 | 0.0 | 0.0 | 0.00 | 0.00 | 0.00 | 100 | 1006.8 |
| 20260831124804 | 71 | 175 | 0.0 | 0.0 | 0.00 | 0.00 | 0.00 | 100 | 1006.9 |
| 20260831124303 | 71 | 175 | 0.0 | 0.0 | 0.00 | 0.00 | 0.00 | 100 | 1006.9 |
| 20260831123803 | 71 | 175 | 0.0 | 0.0 | 0.00 | 0.00 | 0.00 | 100 | 1006.9 |
| 20260831123304 | 70 | 313 | 0.0 | 0.0 | 0.00 | 0.00 | 0.00 | 100 | 1006.8 |
| 20260831122803 | 70 | 250 | 0.0 | 0.0 | 0.00 | 0.00 | 0.00 | 100 | 1006.7 |
| 20260831122305 | 69 | 260 | 0.0 | 0.0 | 0.00 | 0.00 | 0.00 | 100 | 1006.7 |
| 20260831121803 | 69 | 277 | 0.0 | 0.0 | 0.00 | 0.00 | 0.00 | 100 | 1006.6 |
| 20260831121303 | 69 | 0 | 0.0 | 0.0 | 0.00 | 0.00 | 0.00 | 100 | 1006.5 |
| 20260831120804 | 69 | 0 | 0.0 | 0.0 | 0.00 | 0.00 | 0.00 | 100 | 1006.5 |
| 20260831120304 | 69 | 0 | 0.0 | 0.0 | 0.00 | 0.00 | 0.00 | 100 | 1006.4 |
| 20260831115306 | 69 | 0 | 0.0 | 0.0 | 0.00 | 0.00 | 0.00 | 100 | 1006.4 |
| 20260831114803 | 69 | 0 | 0.0 | 0.0 | 0.00 | 0.00 | 0.00 | 100 | 1006.3 |
| 20260831112307 | 68 | 0 | 0.0 | 0.0 | 0.00 | 0.00 | 0.00 | 100 | 1006.1 |
| 20260831111804 | 68 | 0 | 0.0 | 0.0 | 0.00 | 0.00 | 0.00 | 100 | 1006.1 |
| 20260831111303 | 68 | 0 | 0.0 | 0.0 | 0.00 | 0.00 | 0.00 | 100 | 1006.2 |
| 20260831110803 | 69 | 0 | 0.0 | 0.0 | 0.00 | 0.00 | 0.00 | 100 | 1006.2 |
| 20260831105803 | 68 | 0 | 0.0 | 0.0 | 0.00 | 0.00 | 0.00 | 100 | 1006.0 |
| 20260831105306 | 68 | 0 | 0.0 | 0.0 | 0.00 | 0.00 | 0.00 | 100 | 1006.1 |
| 20260831104804 | 68 | 0 | 0.0 | 0.0 | 0.00 | 0.00 | 0.00 | 100 | 1006.1 |
| 20260831104303 | 68 | 0 | 0.0 | 0.0 | 0.00 | 0.00 | 0.00 | 100 | 1006.1 |
| 20260831103804 | 68 | 0 | 0.0 | 0.0 | 0.00 | 0.00 | 0.00 | 100 | 1006.2 |
| 20260831103304 | 68 | 0 | 0.0 | 0.0 | 0.00 | 0.00 | 0.00 | 100 | 1006.2 |
| 20260831102803 | 68 | 0 | 0.0 | 0.0 | 0.00 | 0.00 | 0.00 | 100 | 1006.1 |
| 20260831102306 | 68 | 0 | 0.0 | 0.0 | 0.00 | 0.00 | 0.00 | 100 | 1006.2 |
| 20260831101804 | 68 | 0 | 0.0 | 0.0 | 0.00 | 0.00 | 0.00 | 100 | 1006.2 |
| 20260831100803 | 68 | 0 | 0.0 | 0.0 | 0.00 | 0.00 | 0.00 | 100 | 1006.2 |
| 20260831100304 | 68 | 0 | 0.0 | 0.0 | 0.00 | 0.00 | 0.00 | 100 | 1006.2 |
| 20260831095803 | 68 | 0 | 0.0 | 0.0 | 0.00 | 0.00 | 0.00 | 100 | 1006.2 |
| 20260831094804 | 68 | 0 | 0.0 | 0.0 | 0.00 | 0.00 | 0.00 | 100 | 1006.2 |
| 20260831094303 | 68 | 0 | 0.0 | 0.0 | 0.00 | 0.00 | 0.00 | 100 | 1006.2 |
| 20260831093804 | 68 | 0 | 0.0 | 0.0 | 0.00 | 0.00 | 0.00 | 100 | 1006.2 |
| 20260831093304 | 68 | 0 | 0.0 | 0.0 | 0.00 | 0.00 | 0.00 | 100 | 1006.3 |
| 20260831092306 | 68 | 0 | 0.0 | 0.0 | 0.00 | 0.00 | 0.00 | 100 | 1006.1 |
| 20260831091803 | 68 | 0 | 0.0 | 0.0 | 0.00 | 0.00 | 0.00 | 100 | 1006.1 |
| 20260831091304 | 68 | 0 | 0.0 | 0.0 | 0.00 | 0.00 | 0.00 | 100 | 1006.2 |
| 20260831090803 | 68 | 0 | 0.0 | 0.0 | 0.00 | 0.00 | 0.00 | 100 | 1006.1 |
| 20260831090303 | 68 | 0 | 0.0 | 0.0 | 0.00 | 0.00 | 0.00 | 100 | 1006.2 |
| 20260831085804 | 68 | 0 | 0.0 | 0.0 | 0.00 | 0.00 | 0.00 | 100 | 1006.1 |
| 20260831085306 | 68 | 0 | 0.0 | 0.0 | 0.00 | 0.00 | 0.00 | 100 | 1006.1 |
| 20260831084303 | 68 | 0 | 0.0 | 0.0 | 0.00 | 0.00 | 0.00 | 100 | 1006.2 |
| 20260831083803 | 68 | 0 | 0.0 | 0.0 | 0.00 | 0.00 | 0.00 | 100 | 1006.2 |
| 20260831083303 | 68 | 0 | 0.0 | 0.0 | 0.00 | 0.00 | 0.00 | 100 | 1006.0 |
| 20260831082803 | 68 | 0 | 0.0 | 0.0 | 0.00 | 0.00 | 0.00 | 100 | 1006.0 |
| 20260831082306 | 68 | 0 | 0.0 | 0.0 | 0.00 | 0.00 | 0.00 | 100 | 1006.0 |
| 20260831081804 | 68 | 0 | 0.0 | 0.0 | 0.00 | 0.00 | 0.00 | 100 | 1005.9 |
| 20260831081303 | 68 | 0 | 0.0 | 0.0 | 0.00 | 0.00 | 0.00 | 100 | 1006.0 |
| 20260831080804 | 68 | 0 | 0.0 | 0.0 | 0.00 | 0.00 | 0.00 | 100 | 1006.0 |
| 20260831080303 | 68 | 0 | 0.0 | 0.0 | 0.00 | 0.00 | 0.00 | 100 | 1005.9 |
| 20260831075804 | 68 | 0 | 0.0 | 0.0 | 0.00 | 0.00 | 0.00 | 100 | 1006.0 |
| 20260831075306 | 69 | 0 | 0.0 | 0.0 | 0.00 | 0.00 | 0.00 | 100 | 1006.0 |
| 20260831074803 | 69 | 0 | 0.0 | 0.0 | 0.00 | 0.00 | 0.00 | 100 | 1006.0 |
| 20260831073804 | 68 | 0 | 0.0 | 0.0 | 0.00 | 0.00 | 0.00 | 100 | 1006.1 |
| 20260831073304 | 68 | 0 | 0.0 | 0.0 | 0.00 | 0.00 | 0.00 | 100 | 1006.2 |
| 20260831072804 | 68 | 0 | 0.0 | 0.0 | 0.00 | 0.00 | 0.00 | 100 | 1006.3 |
| 20260831071305 | 69 | 0 | 0.0 | 0.0 | 0.00 | 0.00 | 0.00 | 100 | 1006.4 |
| 20260831070803 | 69 | 0 | 0.0 | 0.0 | 0.00 | 0.00 | 0.00 | 100 | 1006.6 |
| 20260831070303 | 69 | 0 | 0.0 | 0.0 | 0.00 | 0.00 | 0.00 | 100 | 1006.6 |
| 20260831065803 | 69 | 0 | 0.0 | 0.0 | 0.00 | 0.00 | 0.00 | 100 | 1006.5 |
| 20260831064803 | 69 | 0 | 0.0 | 0.0 | 0.00 | 0.00 | 0.00 | 100 | 1006.5 |
| 20260831064304 | 70 | 0 | 0.0 | 0.0 | 0.00 | 0.00 | 0.00 | 100 | 1006.5 |
| 20260831063804 | 70 | 0 | 0.0 | 0.0 | 0.00 | 0.00 | 0.00 | 100 | 1006.6 |
| 20260831063303 | 70 | 0 | 0.0 | 0.0 | 0.00 | 0.00 | 0.00 | 100 | 1006.6 |
| 20260831062803 | 70 | 0 | 0.0 | 0.0 | 0.00 | 0.00 | 0.00 | 100 | 1006.7 |
| 20260831062305 | 70 | 0 | 0.0 | 0.0 | 0.00 | 0.00 | 0.00 | 100 | 1006.9 |
| 20260831061804 | 70 | 0 | 0.0 | 0.0 | 0.00 | 0.00 | 0.00 | 100 | 1006.9 |
| 20260831060803 | 70 | 0 | 0.0 | 0.0 | 0.00 | 0.00 | 0.00 | 100 | 1007.0 |
| 20260831060303 | 71 | 0 | 0.0 | 0.0 | 0.00 | 0.00 | 0.00 | 100 | 1007.0 |
| 20260831055306 | 71 | 0 | 0.0 | 0.0 | 0.00 | 0.00 | 0.00 | 98 | 1007.1 |
| 20260831054803 | 71 | 0 | 0.0 | 0.0 | 0.00 | 0.00 | 0.00 | 98 | 1007.1 |
| 20260831053804 | 71 | 0 | 0.0 | 0.0 | 0.00 | 0.00 | 0.00 | 98 | 1007.1 |
| 20260831053303 | 71 | 0 | 0.0 | 0.0 | 0.00 | 0.00 | 0.00 | 98 | 1007.1 |
| 20260831052306 | 72 | 216 | 0.0 | 1.7 | 0.00 | 0.00 | 0.00 | 98 | 1007.3 |
| 20260831051804 | 72 | 356 | 0.0 | 2.6 | 0.00 | 0.00 | 0.00 | 98 | 1007.3 |
| 20260831051303 | 72 | 313 | 0.0 | 0.9 | 0.00 | 0.00 | 0.00 | 98 | 1007.4 |
| 20260831050814 | 72 | 355 | 0.0 | 0.0 | 0.00 | 0.00 | 0.00 | 98 | 1007.3 |
| 20260831050303 | 72 | 353 | 0.0 | 0.0 | 0.00 | 0.00 | 0.00 | 98 | 1007.3 |
| 20260831045306 | 72 | 297 | 0.0 | 0.0 | 0.00 | 0.00 | 0.00 | 94 | 1007.3 |
| 20260831044804 | 72 | 348 | 0.0 | 2.6 | 0.00 | 0.00 | 0.00 | 94 | 1007.3 |
| 20260831044304 | 73 | 274 | 0.9 | 2.6 | 0.00 | 0.00 | 0.00 | 94 | 1007.3 |
| 20260831043803 | 72 | 226 | 0.0 | 2.6 | 0.00 | 0.00 | 0.00 | 94 | 1007.3 |
| 20260831043303 | 72 | 222 | 0.9 | 2.6 | 0.00 | 0.00 | 0.00 | 94 | 1007.4 |
| 20260831042804 | 72 | 258 | 0.9 | 2.6 | 0.00 | 0.00 | 0.00 | 94 | 1007.3 |
| 20260831042306 | 73 | 226 | 0.0 | 1.7 | 0.00 | 0.00 | 0.00 | 94 | 1007.4 |
| 20260831041303 | 72 | 247 | 0.0 | 1.7 | 0.00 | 0.00 | 0.00 | 94 | 1007.4 |
| 20260831040804 | 73 | 225 | 0.0 | 0.9 | 0.00 | 0.00 | 0.00 | 94 | 1007.4 |
| 20260831040303 | 73 | 219 | 0.9 | 2.6 | 0.00 | 0.00 | 0.00 | 94 | 1007.4 |
| 20260831035804 | 73 | 270 | 0.0 | 0.0 | 0.00 | 0.00 | 0.00 | 91 | 1007.3 |
| 20260831035306 | 73 | 344 | 0.0 | 1.7 | 0.00 | 0.00 | 0.00 | 91 | 1007.3 |
| 20260831034804 | 73 | 262 | 0.0 | 2.6 | 0.00 | 0.00 | 0.00 | 91 | 1007.4 |
| 20260831034303 | 72 | 241 | 0.0 | 2.6 | 0.00 | 0.00 | 0.00 | 91 | 1007.5 |
| 20260831033804 | 73 | 197 | 0.0 | 2.6 | 0.00 | 0.00 | 0.00 | 91 | 1007.5 |
| 20260831033303 | 73 | 202 | 0.9 | 2.6 | 0.00 | 0.00 | 0.00 | 91 | 1007.5 |
| 20260831032804 | 73 | 218 | 0.0 | 4.3 | 0.00 | 0.00 | 0.00 | 91 | 1007.5 |
| 20260831032306 | 73 | 216 | 0.0 | 2.6 | 0.00 | 0.00 | 0.00 | 91 | 1007.6 |
| 20260831031804 | 73 | 201 | 0.0 | 1.7 | 0.00 | 0.00 | 0.00 | 91 | 1007.6 |
| 20260831031304 | 73 | 180 | 1.7 | 4.3 | 0.00 | 0.00 | 0.00 | 91 | 1007.7 |
| 20260831030804 | 73 | 147 | 0.0 | 2.6 | 0.00 | 0.00 | 0.00 | 91 | 1007.8 |
| 20260831030304 | 73 | 134 | 0.9 | 2.6 | 0.00 | 0.00 | 0.00 | 91 | 1007.8 |
| 20260831024803 | 74 | 155 | 0.0 | 0.0 | 0.00 | 0.00 | 0.00 | 92 | 1007.9 |
| 20260831023803 | 74 | 164 | 1.7 | 7.0 | 0.00 | 0.00 | 0.00 | 92 | 1007.9 |
| 20260831023304 | 74 | 168 | 0.9 | 2.6 | 0.00 | 0.00 | 0.00 | 92 | 1008.0 |
| 20260831022803 | 74 | 221 | 0.9 | 4.3 | 0.00 | 0.00 | 0.00 | 92 | 1008.0 |
| 20260831022306 | 74 | 162 | 1.7 | 5.2 | 0.00 | 0.00 | 0.00 | 92 | 1008.0 |
| 20260831021803 | 74 | 182 | 1.7 | 6.1 | 0.00 | 0.00 | 0.00 | 92 | 1008.0 |
| 20260831020804 | 74 | 157 | 1.7 | 5.2 | 0.00 | 0.00 | 0.00 | 92 | 1007.9 |
| 20260831020303 | 75 | 180 | 0.9 | 2.6 | 0.00 | 0.00 | 0.00 | 92 | 1007.9 |
| 20260831015804 | 74 | 144 | 1.7 | 6.1 | 0.00 | 0.00 | 0.00 | 87 | 1007.9 |
| 20260831015306 | 74 | 157 | 0.9 | 5.2 | 0.00 | 0.00 | 0.00 | 87 | 1007.8 |
| 20260831013803 | 75 | 152 | 0.9 | 4.3 | 0.00 | 0.00 | 0.00 | 87 | 1007.8 |
| 20260831013304 | 75 | 142 | 0.9 | 2.6 | 0.00 | 0.00 | 0.00 | 87 | 1007.8 |
| 20260831012803 | 75 | 167 | 1.7 | 2.6 | 0.00 | 0.00 | 0.00 | 87 | 1007.5 |
| 20260831012306 | 76 | 171 | 0.9 | 5.2 | 0.00 | 0.00 | 0.00 | 87 | 1007.4 |
| 20260831011803 | 76 | 155 | 1.7 | 6.1 | 0.00 | 0.00 | 0.00 | 87 | 1007.3 |
| 20260831010804 | 76 | 187 | 0.9 | 5.2 | 0.00 | 0.00 | 0.00 | 87 | 1007.3 |
| 20260831005803 | 77 | 149 | 1.7 | 6.1 | 0.00 | 0.00 | 0.00 | 82 | 1007.2 |
| 20260831005306 | 77 | 157 | 1.7 | 10.4 | 0.00 | 0.00 | 0.00 | 82 | 1007.1 |
| 20260831004803 | 77 | 171 | 3.5 | 10.4 | 0.00 | 0.00 | 0.00 | 82 | 1007.0 |
| 20260831004304 | 77 | 154 | 1.7 | 6.1 | 0.00 | 0.00 | 0.00 | 82 | 1007.0 |
| 20260831003803 | 78 | 160 | 2.6 | 10.4 | 0.00 | 0.00 | 0.00 | 82 | 1007.1 |
| 20260831003304 | 78 | 178 | 6.1 | 11.3 | 0.00 | 0.00 | 0.00 | 82 | 1007.2 |
| 20260831002306 | 78 | 169 | 3.5 | 11.3 | 0.00 | 0.00 | 0.00 | 82 | 1007.3 |
| 20260831001803 | 78 | 184 | 5.2 | 10.4 | 0.00 | 0.00 | 0.00 | 82 | 1007.2 |
| 20260831001305 | 79 | 167 | 1.7 | 8.7 | 0.00 | 0.00 | 0.00 | 82 | 1007.2 |
| 20260831000804 | 79 | 172 | 2.6 | 7.8 | 0.00 | 0.00 | 0.00 | 82 | 1007.2 |
| 20260831000304 | 79 | 161 | 2.6 | 7.0 | 0.00 | 0.00 | 0.00 | 82 | 1007.3 |
| 20260830235804 | 80 | 166 | 2.6 | 10.4 | 0.00 | 0.00 | 0.00 | 73 | 1007.3 |
| 20260830235305 | 80 | 166 | 4.3 | 10.4 | 0.00 | 0.00 | 0.00 | 73 | 1007.3 |
| 20260830234803 | 80 | 168 | 3.5 | 10.4 | 0.00 | 0.00 | 0.00 | 73 | 1007.3 |
| 20260830234304 | 80 | 179 | 4.3 | 10.4 | 0.00 | 0.00 | 0.00 | 73 | 1007.2 |
| 20260830233803 | 80 | 163 | 0.9 | 1.7 | 0.00 | 0.00 | 0.00 | 73 | 1007.2 |
| 20260830232803 | 81 | 191 | 0.9 | 5.2 | 0.00 | 0.00 | 0.00 | 73 | 1007.1 |
| 20260830231804 | 81 | 178 | 1.7 | 5.2 | 0.00 | 0.00 | 0.00 | 73 | 1007.1 |
| 20260830231304 | 82 | 166 | 1.7 | 10.4 | 0.00 | 0.00 | 0.00 | 73 | 1007.1 |
| 20260830230803 | 82 | 146 | 2.6 | 7.0 | 0.00 | 0.00 | 0.00 | 73 | 1007.1 |
| 20260830230303 | 82 | 185 | 1.7 | 2.6 | 0.00 | 0.00 | 0.00 | 73 | 1007.0 |
| 20260830225306 | 83 | 161 | 0.9 | 7.8 | 0.00 | 0.00 | 0.00 | 69 | 1007.0 |
| 20260830224804 | 83 | 174 | 1.7 | 8.7 | 0.00 | 0.00 | 0.00 | 69 | 1006.8 |
| 20260830224304 | 83 | 148 | 1.7 | 8.7 | 0.00 | 0.00 | 0.00 | 69 | 1006.7 |
| 20260830223304 | 83 | 192 | 0.9 | 6.1 | 0.00 | 0.00 | 0.00 | 69 | 1006.7 |
| 20260830222803 | 83 | 175 | 2.6 | 8.7 | 0.00 | 0.00 | 0.00 | 69 | 1006.6 |
| 20260830222306 | 83 | 188 | 1.7 | 8.7 | 0.00 | 0.00 | 0.00 | 69 | 1006.6 |
| 20260830221803 | 84 | 151 | 5.2 | 10.4 | 0.00 | 0.00 | 0.00 | 69 | 1006.7 |
| 20260830221304 | 84 | 154 | 1.7 | 8.7 | 0.00 | 0.00 | 0.00 | 69 | 1006.8 |
| 20260830220304 | 85 | 144 | 0.9 | 10.4 | 0.00 | 0.00 | 0.00 | 69 | 1006.6 |
| 20260830215803 | 84 | 165 | 2.6 | 10.4 | 0.00 | 0.00 | 0.00 | 74 | 1006.5 |
| 20260830215305 | 84 | 176 | 1.7 | 7.0 | 0.00 | 0.00 | 0.00 | 74 | 1006.7 |
| 20260830214804 | 84 | 175 | 4.3 | 8.7 | 0.00 | 0.00 | 0.00 | 74 | 1006.7 |
| 20260830214303 | 84 | 161 | 2.6 | 7.8 | 0.00 | 0.00 | 0.00 | 74 | 1006.6 |
| 20260830213803 | 85 | 200 | 2.6 | 8.7 | 0.00 | 0.00 | 0.00 | 74 | 1006.5 |
| 20260830213304 | 85 | 180 | 5.2 | 10.4 | 0.00 | 0.00 | 0.00 | 74 | 1006.5 |
| 20260830212306 | 85 | 237 | 2.6 | 10.4 | 0.00 | 0.00 | 0.00 | 74 | 1006.3 |
| 20260830211304 | 87 | 154 | 2.6 | 10.4 | 0.00 | 0.00 | 0.00 | 74 | 1006.4 |
| 20260830210803 | 87 | 146 | 6.1 | 12.2 | 0.00 | 0.00 | 0.00 | 74 | 1006.4 |
| 20260830210303 | 87 | 180 | 1.7 | 7.8 | 0.00 | 0.00 | 0.00 | 74 | 1006.4 |
| 20260830205804 | 87 | 152 | 2.6 | 8.7 | 0.00 | 0.00 | 0.00 | 71 | 1006.4 |
| 20260830205305 | 86 | 151 | 2.6 | 8.7 | 0.00 | 0.00 | 0.00 | 71 | 1006.4 |
| 20260830204803 | 86 | 199 | 1.7 | 7.8 | 0.00 | 0.00 | 0.00 | 71 | 1006.4 |
| 20260830204304 | 87 | 169 | 5.2 | 12.2 | 0.00 | 0.00 | 0.00 | 71 | 1006.4 |
| 20260830203803 | 87 | 170 | 2.6 | 10.4 | 0.00 | 0.00 | 0.00 | 71 | 1006.4 |
| 20260830203304 | 87 | 170 | 2.6 | 10.4 | 0.00 | 0.00 | 0.00 | 71 | 1006.4 |
| 20260830202804 | 87 | 121 | 1.7 | 10.4 | 0.00 | 0.00 | 0.00 | 71 | 1006.5 |
| 20260830202305 | 87 | 174 | 2.6 | 10.4 | 0.00 | 0.00 | 0.00 | 71 | 1006.5 |
| 20260830201303 | 87 | 168 | 2.6 | 7.8 | 0.00 | 0.00 | 0.00 | 71 | 1006.7 |
| 20260830200803 | 87 | 156 | 4.3 | 10.4 | 0.00 | 0.00 | 0.00 | 71 | 1006.7 |